This demonstration page uses our WeatherBlox Daily Observations layout. Learn more.

Left ArrowRight Arrow

53.62937, 11.41316

Hourly Observations for February 26, 2018

Temp ( °F °C ) Dew Point ( °F °C ) Humidity (%) Winds ( mph kmh ) Pressure ( in mb ) Visibility ( mi km ) Precip ( " mm )
7:50 am 07:50 Mostly Sunny 19 -7 18 -8 93 93 VRB 1 2 30.48 1032 7 11 N/A
8:20 am 08:20 Mostly Sunny 19 -7 18 -8 93 93 NNW 5 7 30.48 1032 30 48 N/A
8:50 am 08:50 Mostly Sunny 21 -6 19 -7 93 93 N 6 9 30.48 1032 30 48 N/A
9:20 am 09:20 Partly Cloudy 23 -5 18 -8 80 80 NE 5 7 30.48 1032 30 48 N/A
9:50 am 09:50 Mostly Cloudy with Light Snow 23 -5 19 -7 86 86 NNE 7 11 30.48 1032 3 5 N/A
10:20 am 10:20 Mostly Cloudy 25 -4 19 -7 80 80 NNE 7 11 30.48 1032 30 48 N/A
10:50 am 10:50 Partly Cloudy 27 -3 19 -7 74 74 N 8 13 30.48 1032 30 48 N/A
11:20 am 11:20 Mostly Cloudy 27 -3 21 -6 80 80 N 8 13 30.45 1031 30 48 N/A
11:50 am 11:50 Mostly Cloudy 27 -3 19 -7 74 74 N 8 13 30.45 1031 30 48 N/A
12:20 pm 12:20 Mostly Cloudy 27 -3 21 -6 80 80 N 10 17 30.42 1030 30 48 N/A
12:50 pm 12:50 Mostly Cloudy with Light Snow 27 -3 19 -7 74 74 NNW 9 15 30.42 1030 3 5 N/A
1:20 pm 13:20 Mostly Cloudy 28 -2 21 -6 74 74 N 10 17 30.42 1030 30 48 N/A
1:50 pm 13:50 Mostly Cloudy 30 -1 21 -6 69 69 N 13 20 30.39 1029 30 48 N/A
2:20 pm 14:20 Mostly Cloudy 27 -3 19 -7 74 74 NNE 17 28 30.39 1029 30 48 N/A
2:50 pm 14:50 Mostly Cloudy 28 -2 23 -5 80 80 NE 21 33 30.39 1029 30 48 N/A
3:20 pm 15:20 Mostly Cloudy 27 -3 19 -7 74 74 E 15 24 30.39 1029 30 48 N/A
3:50 pm 15:50 Partly Cloudy 27 -3 18 -8 69 69 ENE 16 26 30.39 1029 30 48 N/A
4:20 pm 16:20 Mostly Sunny 27 -3 14 -10 59 59 NE 14 22 30.39 1029 30 48 N/A
4:50 pm 16:50 Partly Cloudy 27 -3 12 -11 54 54 ENE 14 22 30.39 1029 30 48 N/A
5:20 pm 17:20 Partly Cloudy 25 -4 12 -11 59 59 NE 13 20 30.39 1029 30 48 N/A
5:50 pm 17:50 Partly Cloudy 25 -4 16 -9 69 69 N 8 13 30.39 1029 30 48 N/A

Powered by AerisWeather